Weather History for Albany, GA

Change the Weather History Date:

Saturday, February 16, 2013

  Actual Average Record
Temperature  
Mean Temperature 42 °F 53 °F  
Max Temperature 54 °F 65 °F 86 °F (1989)
Min Temperature 30 °F 41 °F 19 °F (1991)
Degree Days  
Heating Degree Days 23 13  
Month to date heating degree days 258 221  
Since 1 July heating degree days 1180 1425  
Cooling Degree Days 0 0  
Month to date cooling degree days 0 0  
Year to date cooling degree days 27 4  
Moisture  
Dew Point 28 °F    
Average Humidity 57    
Maximum Humidity 92    
Minimum Humidity 22    
Precipitation  
Precipitation T in 0.16 in 1.58 in (2003)
Month to date precipitation 4.51 2.18  
Year to date precipitation 5.83 7.00  
Sea Level Pressure  
Sea Level Pressure 30.07 in    
Wind  
Wind Speed 7 mph (NW)    
Max Wind Speed 28 mph    
Max Gust Speed 37 mph    
Visibility 10 miles    
Events Rain    
T = Trace of Precipitation, MM = Missing Value Source: NWS Daily Summary

Daily Weather History Graph

Daily Weather History Graph

Search for Another Location

Airport:

Trip Planner

Search our weather history database for the weather conditions in past years. The results will help you decide how hot, cold, wet, or windy it might be!

Date:

Astronomy

Feb. 16, 2013 Rise Set
Actual Time 7:17 AM EST 6:24 PM EST
Civil Twilight 6:52 AM EST 6:49 PM EST
Nautical Twilight 6:23 AM EST 7:18 PM EST
Astronomical Twilight 5:55 AM EST 7:46 PM EST
Moon 10:56 AM EST (2/16) No Moon Set
Length of Visible Light 11h 57m
Length of Day
11h 07m
Waxing Crescent, 39% of the Moon is Illuminated
Feb 16
Waxing Crescent
Feb 17
First Quarter
Feb 25
Full
Mar 4
Last Quarter
Mar 11
New

Hourly Weather History & Observations

Time (EST) Temp. Windchill Dew Point Humidity Pressure Visibility Wind Dir Wind Speed Gust Speed Precip Events Conditions
12:53 AM 44.1 °F - 39.9 °F 85% 30.03 in 10.0 mi Calm Calm - N/A   Clear
1:53 AM 43.0 °F - 39.9 °F 89% 30.01 in 10.0 mi Calm Calm - N/A   Clear
2:53 AM 42.1 °F - 39.0 °F 89% 30.01 in 10.0 mi Calm Calm - N/A   Clear
3:53 AM 45.0 °F 43.5 °F 37.0 °F 74% 29.99 in 10.0 mi North 3.5 mph - N/A   Clear
4:53 AM 41.0 °F - 37.0 °F 86% 30.00 in 10.0 mi Calm Calm - N/A   Clear
5:53 AM 39.9 °F - 37.0 °F 89% 30.01 in 10.0 mi Calm Calm - N/A   Mostly Cloudy
7:53 AM 44.1 °F 40.8 °F 37.0 °F 76% 30.05 in 10.0 mi WNW 5.8 mph - 0.00 in Rain Light Rain
8:53 AM 44.1 °F 39.0 °F 39.0 °F 82% 30.08 in 6.0 mi NW 9.2 mph - 0.00 in Rain Light Rain
9:53 AM 44.1 °F - 41.0 °F 89% 30.08 in 10.0 mi Calm Calm - 0.00 in   Overcast
10:53 AM 46.0 °F 43.9 °F 41.0 °F 83% 30.06 in 10.0 mi SW 4.6 mph - N/A   Mostly Cloudy
11:53 AM 48.9 °F - 39.0 °F 69% 30.05 in 10.0 mi NW 10.4 mph - N/A   Overcast
12:27 PM 51.8 °F - 32.0 °F 47% 30.03 in 10.0 mi NW 16.1 mph 25.3 mph N/A   Mostly Cloudy
12:53 PM 48.9 °F - 28.0 °F 44% 30.04 in 10.0 mi NW 13.8 mph 26.5 mph N/A   Mostly Cloudy
1:53 PM 51.1 °F - 25.0 °F 36% 30.01 in 10.0 mi NW 17.3 mph 26.5 mph N/A   Scattered Clouds
2:53 PM 51.1 °F - 21.9 °F 32% 30.02 in 10.0 mi WNW 16.1 mph 25.3 mph N/A   Mostly Cloudy
3:53 PM 50.0 °F - 16.0 °F 26% 30.02 in 10.0 mi WNW 21.9 mph 29.9 mph N/A   Overcast
4:53 PM 50.0 °F - 14.0 °F 24% 30.04 in 10.0 mi NW 18.4 mph 28.8 mph N/A   Scattered Clouds
5:53 PM 46.0 °F 39.0 °F 10.0 °F 23% 30.07 in 10.0 mi NW 17.3 mph 32.2 mph N/A   Clear
6:53 PM 44.1 °F 38.1 °F 10.0 °F 25% 30.10 in 10.0 mi NW 11.5 mph 21.9 mph N/A   Clear
7:53 PM 42.1 °F 37.1 °F 10.9 °F 28% 30.13 in 10.0 mi NW 8.1 mph - N/A   Clear
8:53 PM 39.0 °F 34.8 °F 12.9 °F 34% 30.17 in 10.0 mi NW 5.8 mph - N/A   Clear
9:53 PM 36.0 °F - 17.1 °F 46% 30.20 in 10.0 mi Calm Calm - N/A   Clear
10:53 PM 32.0 °F - 21.0 °F 64% 30.22 in 10.0 mi Calm Calm - N/A   Clear
11:53 PM 33.1 °F 27.7 °F 17.1 °F 52% 30.23 in 10.0 mi WNW 5.8 mph - N/A   Clear